Managua, Nicaragua

3:21 PM CST on May 23, 2018 (GMT -0600)
Augusto Cesar Sandino

Weather History for MNMG - March, 2013

Change the Weather History Date:

Monday, March 18, 2013

  Actual Average Record
Temperature  
Mean Temperature 83 °F -  
Max Temperature 95 °F 92 °F 96 °F (2005)
Min Temperature 71 °F 72 °F 69 °F (1999)
Cooling Degree Days 18    
Growing Degree Days 33 (Base 50)    
Moisture  
Dew Point 69 °F    
Average Humidity 62    
Maximum Humidity 88    
Minimum Humidity 44    
Precipitation  
Precipitation 0.00 in - - ()
Sea Level Pressure  
Sea Level Pressure 29.86 in    
Wind  
Wind Speed 10 mph ()    
Max Wind Speed 16 mph    
Max Gust Speed -    
Visibility 6.2 miles    
Events      
Averages and records for this station are not official NWS values.
T = Trace of Precipitation, MM = Missing Value Source: Averaged Metar Reports

Daily Weather History Graph

Daily Weather History Graph

Search for Another Location

Airport or City:

Astronomy

Mar. 18, 2013 Rise Set
Actual Time 5:49 AM CST 5:55 PM CST
Civil Twilight 5:28 AM CST 6:16 PM CST
Nautical Twilight 5:04 AM CST 6:41 PM CST
Astronomical Twilight 4:39 AM CST 7:05 PM CST
Moon 10:45 AM CST (3/18) 11:46 PM CST (3/18)
Length of Visible Light 12h 47m
Length of Day
12h 05m
Waxing Crescent, 41% of the Moon is Illuminated
Mar 18
Waxing Crescent
Mar 19
First Quarter
Mar 27
Full
Apr 2
Last Quarter
Apr 10
New

Hourly Weather History & Observations

Time (CST) Temp. Heat Index Dew Point Humidity Pressure Visibility Wind Dir Wind Speed Gust Speed Precip Events Conditions
12:00 AM 78.8 °F - 68.0 °F 69% 29.89 in 6.2 mi ESE 11.5 mph - N/A   Partly Cloudy
1:00 AM 78.8 °F - 68.0 °F 69% 29.89 in 6.2 mi ESE 11.5 mph - N/A   Partly Cloudy
3:00 AM 73.4 °F - 68.0 °F 83% 29.89 in 6.2 mi ESE 6.9 mph - N/A   Partly Cloudy
4:00 AM 73.4 °F - 68.0 °F 83% 29.89 in 6.2 mi ESE 6.9 mph - N/A   Partly Cloudy
5:00 AM 71.6 °F - 68.0 °F 88% 29.89 in 6.2 mi East 6.9 mph - N/A   Partly Cloudy
6:00 AM 73.4 °F - 69.8 °F 88% 29.92 in 6.2 mi East 9.2 mph - N/A   Partly Cloudy
7:00 AM 78.8 °F - 68.0 °F 69% 29.92 in 6.2 mi ESE 9.2 mph - N/A   Partly Cloudy
8:00 AM 80.6 °F 82.7 °F 66.2 °F 61% 29.95 in 6.2 mi East 11.5 mph - N/A   Partly Cloudy
9:00 AM 84.2 °F 86.6 °F 66.2 °F 55% 29.95 in 6.2 mi East 13.8 mph - N/A   Partly Cloudy
10:00 AM 87.8 °F 91.4 °F 68.0 °F 52% 29.95 in 6.2 mi East 16.1 mph - N/A   Partly Cloudy
11:00 AM 89.6 °F 92.2 °F 66.2 °F 46% 29.92 in 6.2 mi East 13.8 mph - N/A   Partly Cloudy
12:00 PM 91.4 °F 96.8 °F 69.8 °F 49% 29.89 in 6.2 mi East 16.1 mph - N/A   Partly Cloudy
1:00 PM 93.2 °F 98.8 °F 69.8 °F 46% 29.83 in 6.2 mi East 16.1 mph - N/A   Partly Cloudy
2:00 PM 93.2 °F 97.7 °F 68.0 °F 44% 29.80 in 6.2 mi East 13.8 mph - N/A   Partly Cloudy
3:00 PM 95.0 °F 101.3 °F 69.8 °F 44% 29.80 in 6.2 mi ESE 16.1 mph - N/A   Partly Cloudy
4:00 PM 93.2 °F 98.8 °F 69.8 °F 46% 29.77 in 6.2 mi East 13.8 mph - N/A   Partly Cloudy
5:00 PM 91.4 °F 95.4 °F 68.0 °F 46% 29.77 in 6.2 mi ESE 16.1 mph - N/A   Partly Cloudy
6:00 PM 87.8 °F 91.4 °F 68.0 °F 52% 29.77 in 6.2 mi ESE 9.2 mph - N/A   Partly Cloudy
7:00 PM 86.0 °F 90.4 °F 69.8 °F 58% 29.80 in 6.2 mi ESE 6.9 mph - N/A   Partly Cloudy
8:00 PM 82.4 °F 86.3 °F 69.8 °F 66% 29.83 in 6.2 mi ESE 6.9 mph - N/A   Partly Cloudy
9:00 PM 82.4 °F 86.3 °F 69.8 °F 66% 29.83 in 6.2 mi ESE 6.9 mph - N/A   Partly Cloudy
10:00 PM 82.4 °F 86.3 °F 69.8 °F 66% 29.83 in 6.2 mi ESE 6.9 mph - N/A   Partly Cloudy
10:50 PM 82.4 °F 88.2 °F 73.4 °F 74% 29.86 in 6.2 mi ESE 11.5 mph - N/A   Partly Cloudy
11:00 PM 82.4 °F 88.2 °F 73.4 °F 74% 29.86 in 6.2 mi ESE 11.5 mph - N/A   Partly Cloudy